San Carlos, CA

2:12 AM PDT on August 24, 2017 (GMT -0700)
San Carlos

Weather History for KSQL - March, 2012

Change the Weather History Date:

Monday, March 5, 2012

  Actual Average Record
Temperature  
Mean Temperature 54 °F -  
Max Temperature 64 °F 63 °F 78 °F (1959)
Min Temperature 44 °F 42 °F 32 °F (1967)
Degree Days  
Heating Degree Days 11    
Growing Degree Days 4 (Base 50)    
Moisture  
Dew Point 43 °F    
Average Humidity 76    
Maximum Humidity 87    
Minimum Humidity 40    
Precipitation  
Precipitation 0.00 in - - ()
Sea Level Pressure  
Sea Level Pressure 30.07 in    
Wind  
Wind Speed 3 mph (WNW)    
Max Wind Speed 15 mph    
Max Gust Speed -    
Visibility 11 miles    
Events      
Averages and records for this station are not official NWS values.
T = Trace of Precipitation, MM = Missing Value Source: NWS Daily Summary

Daily Weather History Graph

Daily Weather History Graph

Search for Another Location

Airport or City:

Trip Planner

Search our weather history database for the weather conditions in past years. The results will help you decide how hot, cold, wet, or windy it might be!

Date:

Astronomy

Mar. 05, 2012 Rise Set
Actual Time 6:33 AM PST 6:07 PM PST
Civil Twilight 6:07 AM PST 6:33 PM PST
Nautical Twilight 5:37 AM PST 7:03 PM PST
Astronomical Twilight 5:07 AM PST 7:34 PM PST
Moon 3:34 PM PST (3/5) 4:33 AM PST (3/5)
Length of Visible Light 12h 25m
Length of Day
11h 33m
Waxing Gibbous, 91% of the Moon is Illuminated
Mar 5
Waxing Gibbous
Mar 8
Full
Mar 14
Last Quarter
Mar 22
New
Mar 30
First Quarter

Hourly Weather History & Observations

Time (PST) Temp. Windchill Dew Point Humidity Pressure Visibility Wind Dir Wind Speed Gust Speed Precip Events Conditions
12:10 AM 51.8 °F - 44.6 °F 76% 30.09 in 10.0 mi Calm Calm - N/A   Clear
12:30 AM 51.8 °F - 41.0 °F 67% 30.09 in 10.0 mi NW 3.5 mph - N/A   Clear
12:50 AM 50.0 °F - 42.8 °F 76% 30.08 in 10.0 mi Calm Calm - N/A   Clear
1:10 AM 50.0 °F - 41.0 °F 71% 30.08 in 10.0 mi NW 3.5 mph - N/A   Clear
1:30 AM 50.0 °F - 42.8 °F 76% 30.08 in 10.0 mi NW 3.5 mph - N/A   Clear
1:50 AM 50.0 °F - 42.8 °F 76% 30.08 in 10.0 mi Calm Calm - N/A   Clear
2:10 AM 48.2 °F - 42.8 °F 82% 30.08 in 10.0 mi Calm Calm - N/A   Clear
2:30 AM 48.2 °F - 41.0 °F 76% 30.07 in 10.0 mi Calm Calm - N/A   Clear
2:50 AM 48.2 °F - 41.0 °F 76% 30.07 in 10.0 mi Calm Calm - N/A   Clear
3:10 AM 48.2 °F - 42.8 °F 82% 30.07 in 10.0 mi Calm Calm - N/A   Clear
3:30 AM 46.4 °F - 41.0 °F 81% 30.07 in 10.0 mi Calm Calm - N/A   Clear
3:50 AM 46.4 °F - 41.0 °F 81% 30.06 in 10.0 mi Calm Calm - N/A   Clear
4:10 AM 46.4 °F - 41.0 °F 81% 30.06 in 10.0 mi Calm Calm - N/A   Clear
4:30 AM 44.6 °F 42.2 °F 39.2 °F 81% 30.06 in 10.0 mi NW 4.6 mph - N/A   Clear
4:50 AM 46.4 °F 45.2 °F 41.0 °F 81% 30.07 in 10.0 mi NW 3.5 mph - N/A   Clear
5:10 AM 46.4 °F 45.2 °F 41.0 °F 81% 30.07 in 10.0 mi NW 3.5 mph - N/A   Clear
5:30 AM 46.4 °F - 39.2 °F 76% 30.07 in 10.0 mi Calm Calm - N/A   Clear
5:50 AM 44.6 °F - 39.2 °F 81% 30.07 in 10.0 mi Calm Calm - N/A   Clear
6:10 AM 46.4 °F - 39.2 °F 76% 30.07 in 10.0 mi Calm Calm - N/A   Clear
6:30 AM 44.6 °F - 41.0 °F 87% 30.07 in 10.0 mi Calm Calm - N/A   Clear
6:50 AM 44.6 °F - 41.0 °F 87% 30.07 in 10.0 mi Calm Calm - N/A   Scattered Clouds
7:47 AM 48.2 °F - 42.8 °F 82% 30.09 in 10.0 mi Calm Calm - N/A   Scattered Clouds
8:47 AM 51.8 °F - 42.8 °F 71% 30.11 in 10.0 mi Calm Calm - N/A   Scattered Clouds
9:49 AM 55.4 °F - 46.4 °F 72% 30.11 in 10.0 mi NW 4.6 mph - N/A   Scattered Clouds
10:47 AM 57.2 °F - 46.4 °F 67% 30.11 in 10.0 mi North 4.6 mph - N/A   Partly Cloudy
11:49 AM 60.8 °F - 46.4 °F 59% 30.10 in 10.0 mi NNW 8.1 mph - N/A   Partly Cloudy
12:47 PM 60.8 °F - 46.4 °F 59% 30.07 in 7.0 mi North 12.7 mph - N/A   Partly Cloudy
1:47 PM 64.4 °F - 42.8 °F 45% 30.04 in 30.0 mi NW 8.1 mph - N/A   Partly Cloudy
3:47 PM 64.4 °F - 39.2 °F 40% 30.03 in 30.0 mi West 15.0 mph - N/A   Partly Cloudy
4:47 PM 59.0 °F - 41.0 °F 51% 30.03 in 30.0 mi West 13.8 mph - N/A   Partly Cloudy
5:47 PM 55.4 °F - 41.0 °F 58% 30.02 in 20.0 mi West 11.5 mph - N/A   Partly Cloudy
6:47 PM 51.8 °F - 42.8 °F 71% 30.04 in 20.0 mi NW 11.5 mph - N/A   Mostly Cloudy
7:47 PM 50.0 °F - 44.6 °F 82% 30.06 in 20.0 mi WNW 9.2 mph - N/A   Mostly Cloudy
8:47 PM 46.4 °F 42.9 °F 42.8 °F 87% 30.07 in 20.0 mi West 6.9 mph - N/A   Scattered Clouds
9:10 PM 48.2 °F - 44.6 °F 87% 30.07 in 10.0 mi WNW 6.9 mph - N/A   Partly Cloudy
9:30 PM 48.2 °F - 44.6 °F 87% 30.08 in 10.0 mi West 8.1 mph - N/A   Partly Cloudy
9:50 PM 48.2 °F - 44.6 °F 87% 30.08 in 10.0 mi West 6.9 mph - N/A   Partly Cloudy
10:10 PM 48.2 °F - 44.6 °F 87% 30.07 in 10.0 mi West 6.9 mph - N/A   Partly Cloudy
10:30 PM 48.2 °F - 44.6 °F 87% 30.06 in 10.0 mi WSW 3.5 mph - N/A   Clear
10:50 PM 48.2 °F - 44.6 °F 87% 30.06 in 10.0 mi West 8.1 mph - N/A   Partly Cloudy
11:10 PM 48.2 °F - 44.6 °F 87% 30.06 in 10.0 mi West 8.1 mph - N/A   Mostly Cloudy
11:30 PM 48.2 °F - 44.6 °F 87% 30.05 in 10.0 mi West 6.9 mph - N/A   Overcast
11:50 PM 50.0 °F - 44.6 °F 82% 30.05 in 10.0 mi West 8.1 mph - N/A   Overcast